EW0408 Weather Reports


Display with metric or nautical units.
time (UTC)temp
F
wind
direction
speed
MPH
gust
MPH
rain 1hr
in
rain 24hr
in
rain mn
in
humidity
%
barometer
mb
20260504050025 70 34 5.0 9.0 0.00 0.72 0.00 81 1016.4
20260504045004 70 42 5.0 9.0 0.00 0.72 0.00 81 1016.4
20260504044005 70 32 4.0 9.0 0.00 0.72 0.00 81 1016.6
20260504043004 70 38 4.0 10.0 0.00 0.72 0.00 81 1016.7
20260504042004 70 0 0.0 0.0 0.00 0.72 0.00 82 1016.6
20260504041004 70 0 0.0 0.0 0.00 0.72 0.00 82 1016.9
20260504040004 70 0 0.0 0.0 0.00 0.72 0.00 82 1017.1
20260504035004 70 0 0.0 0.0 0.00 0.72 0.72 81 1016.9
20260504034004 70 0 0.0 0.0 0.00 0.72 0.72 81 1017.0
20260504033004 70 0 0.0 0.0 0.00 0.72 0.72 81 1016.9
20260504032025 70 0 0.0 0.0 0.00 0.72 0.72 81 1017.0
20260504031004 70 0 0.0 0.0 0.00 0.72 0.72 81 1016.9
20260504030026 71 55 0.0 1.0 0.00 0.72 0.72 81 1016.9
20260504025004 71 0 0.0 0.0 0.00 0.72 0.72 81 1016.9
20260504024025 71 0 0.0 0.0 0.00 0.72 0.72 81 1017.0
20260504023004 71 0 0.0 0.0 0.00 0.72 0.72 81 1016.8
20260504022004 71 0 0.0 0.0 0.00 0.72 0.72 80 1016.7
20260504021025 71 50 0.0 1.0 0.00 0.72 0.72 80 1016.6
20260504020004 71 0 0.0 0.0 0.00 0.75 0.72 80 1016.5
20260504015004 71 0 0.0 0.0 0.00 0.75 0.72 80 1016.7
20260504014004 71 0 0.0 0.0 0.00 0.75 0.72 79 1016.6
20260504013004 72 0 0.0 0.0 0.00 0.75 0.72 79 1016.4
20260504012004 72 0 0.0 0.0 0.00 0.75 0.72 80 1016.3
20260504011004 72 49 5.0 11.0 0.00 0.75 0.72 79 1016.2
20260504010004 72 44 6.0 9.0 0.00 0.76 0.72 79 1016.1
20260504005004 72 47 7.0 10.0 0.00 0.76 0.72 80 1016.1
20260504004004 72 50 4.0 8.0 0.00 0.76 0.72 79 1016.0
20260504003025 72 52 5.0 9.0 0.00 0.76 0.72 79 1015.9
20260504002004 73 54 3.0 8.0 0.00 0.76 0.72 78 1015.9
20260504001004 73 50 6.0 9.0 0.00 0.76 0.72 78 1015.7
20260504000025 73 50 7.0 11.0 0.00 0.76 0.72 78 1015.7
20260503235004 73 51 7.0 12.0 0.00 0.76 0.72 77 1015.7
20260503234004 73 54 8.0 15.0 0.00 0.76 0.72 77 1015.6
20260503233004 73 54 9.0 15.0 0.00 0.76 0.72 76 1015.7
20260503232004 73 53 9.0 14.0 0.00 0.76 0.72 77 1015.7
20260503231025 73 51 9.0 13.0 0.00 0.76 0.72 78 1015.7
20260503230004 73 49 9.0 12.0 0.00 0.76 0.72 77 1015.5
20260503225025 73 51 8.0 12.0 0.00 0.76 0.72 77 1015.6
20260503224004 73 49 8.0 12.0 0.00 0.77 0.72 77 1015.5
20260503223004 73 51 9.0 14.0 0.00 0.77 0.72 77 1015.5
20260503222003 74 52 9.0 15.0 0.00 0.83 0.72 77 1015.5
20260503221003 74 49 9.0 13.0 0.00 0.83 0.72 77 1015.5
20260503220005 74 50 9.0 14.0 0.00 0.83 0.72 76 1015.6
20260503215025 74 50 9.0 14.0 0.00 0.83 0.72 76 1015.6
20260503214004 74 53 8.0 11.0 0.00 0.83 0.72 78 1015.6
20260503213003 74 51 6.0 10.0 0.00 0.83 0.72 76 1015.4
20260503212003 74 53 8.0 13.0 0.00 0.83 0.72 76 1015.5
20260503211004 74 46 9.0 13.0 0.00 0.83 0.72 76 1015.6
20260503210004 74 47 9.0 15.0 0.00 0.83 0.72 77 1015.7
20260503205025 74 45 9.0 14.0 0.00 0.83 0.72 77 1015.6
20260503204025 73 48 10.0 15.0 0.00 0.83 0.72 77 1015.8
20260503203004 73 50 9.0 15.0 0.00 0.83 0.72 77 1015.7
20260503202003 74 48 10.0 14.0 0.00 0.83 0.72 77 1015.9
20260503201025 74 51 11.0 16.0 0.00 0.83 0.72 76 1016.0
20260503200025 73 49 9.0 16.0 0.00 0.83 0.72 77 1016.1
20260503195004 73 47 10.0 15.0 0.00 0.83 0.72 78 1016.2
20260503194004 72 47 10.0 14.0 0.00 0.83 0.72 78 1016.3
20260503193004 72 45 9.0 15.0 0.00 0.83 0.72 79 1016.4
20260503192004 72 46 9.0 13.0 0.00 0.83 0.72 79 1016.5
20260503191024 72 49 10.0 15.0 0.00 0.83 0.72 80 1016.7
20260503190004 72 44 8.0 14.0 0.00 0.83 0.72 79 1016.8
20260503185025 72 45 9.0 13.0 0.00 0.83 0.72 79 1016.9
20260503184003 71 47 9.0 12.0 0.00 0.83 0.72 80 1017.1
20260503183004 71 45 7.0 13.0 0.00 0.83 0.72 80 1017.4
20260503182025 71 41 7.0 12.0 0.00 0.83 0.72 80 1017.5
20260503181004 71 36 7.0 13.0 0.00 0.83 0.72 80 1017.6
20260503180005 71 42 7.0 12.0 0.00 0.83 0.72 81 1017.4
20260503175003 71 44 8.0 12.0 0.00 0.83 0.72 81 1017.5
20260503174004 71 45 8.0 14.0 0.00 0.83 0.72 81 1017.6
20260503173004 71 46 9.0 15.0 0.00 0.83 0.72 82 1017.5
20260503172003 71 43 8.0 13.0 0.00 0.83 0.72 83 1017.6
20260503171004 71 45 8.0 14.0 0.00 0.83 0.72 82 1017.6
20260503151004 68 29 4.0 8.0 0.00 0.83 0.72 88 1018.1
20260503131004 66 39 6.0 11.0 0.00 0.83 0.72 92 1016.8
20260503081005 70 9 2.0 5.0 0.25 0.42 0.31 92 1013.8
20260503072005 70 275 0.0 4.0 0.08 0.19 0.08 92 1013.8
20260503071005 70 0 0.0 0.0 0.06 0.17 0.06 91 1013.9